Regional Weather Roundup
Issued by NWS Sioux Falls, SD

Home | Current Version | Previous Version | Graphics & Text | Print | Product List | Glossary On
Versions: 1 2 3 4 5 6 7 8 9 10 11 12 13 14 15 16 17 18 19 20 21 22 23 24 25 26 27 28 29 30 31 32 33 34 35 36 37 38 39 40 41 42 43 44 45 46 47 48 49 50
000
ASUS43 KFSD 170310
RWRFSD

WEATHER ROUNDUP FOR SE SOUTH DAKOTA/SW MINNESOTA/NW IOWA
NATIONAL WEATHER SERVICE SIOUX FALLS SD
1000 PM CDT WED APR 16 2014

NOTE: "FAIR" INDICATES FEW OR NO CLOUDS BELOW 12,000 FEET WITH NO
SIGNIFICANT WEATHER AND OR OBSTRUCTIONS TO VISIBILITY.


SDZ038>040-050-052>070-170400-
SOUTHEAST SOUTH DAKOTA

CITY           SKY/WX    TMP DP  RH WIND       PRES   REMARKS
CHAMBERLAIN      N/A     32  24  72 NE14      30.18R WCI  22
HURON          CLOUDY    32  24  72 N13       30.17R WCI  22
MITCHELL       CLOUDY    32  25  75 N23G32    30.17R WCI  19
SIOUX FALLS    CLOUDY    30  26  85 N14G26    30.08R WCI  19
WINNER         CLOUDY    33  23  66 N13       30.18R WCI  24
YANKTON        CLOUDY    32  27  80 NW17      30.14R WCI  21
$$

MNZ071-072-080-081-089-090-097-098-170400-
SOUTHWEST MINNESOTA

CITY           SKY/WX    TMP DP  RH WIND       PRES   REMARKS
FAIRMONT       CLOUDY    32  28  86 NW22G29   29.91R WCI  19
JACKSON        CLOUDY    32  28  86 N17G31    29.95R FOG     WCI  21
LUVERNE        CLOUDY    32  28  86 N17G26    30.05R WCI  21
MARSHALL       CLOUDY    30  23  74 N22       30.06R WCI  17
MONTEVIDEO     CLOUDY    28  25  86 NE20G26   30.10R WCI  15
PIPESTONE      CLOUDY    28  27  93 N15G24    30.04R WCI  17
REDWOOD FALLS  CLOUDY    29  25  85 N18G25    30.02R WCI  16
TRACY          CLOUDY    29  27  92 N20G25    30.04R WCI  17
WINDOM         MIX PCPN  28  28 100 N28       29.97R WCI  13
WORTHINGTON    CLOUDY   N/A N/A N/A N29       30.00R
$$

IAZ001>003-012>014-020>022-031-032-NEZ013-014-SDZ071-170400-
NORTHWEST IOWA

CITY           SKY/WX    TMP DP  RH WIND       PRES   REMARKS
CHEROKEE       CLOUDY    32  30  92 NW22G29   29.99R WCI  19
DENISON        CLOUDY    34  30  86 NW25G32   29.98R WCI  21
ESTHERVILLE    LGT SNOW  31  30  96 NW28G35   29.91R FOG     WCI  17
LE MARS        CLOUDY    32  28  86 N22G30    30.05R WCI  19
ORANGE CITY    CLOUDY    30  27  86 N15G26    30.03R WCI  19
SHELDON        MIX PCPN  30  28  93 N28       30.00R WCI  16
SIOUX CITY     CLOUDY    35  29  78 NW23      30.06R WCI  23
SPENCER        CLOUDY    31  28  89 N30G40    29.95R WCI  16
STORM LAKE     CLOUDY    32  32 100 NW23G32   29.96R WCI  19
$$

ABBREVIATIONS USED IN REMARKS
   TC - TEMPERATURE IN CELSIUS
  WCI - WIND CHILL INDEX
   HX - HEAT INDEX
  VSB - VISIBILITY




USA.gov is the U.S. government's official web portal to all federal, state and local government web resources and services.